Other Surface Observations
Issued by NWS Charleston, SC

Home | Current Version | Previous Version | Text Only | Print | Product List | Glossary On
Versions: 1 2 3 4 5 6 7 8 9 10 11 12 13 14 15 16 17 18 19 20 21 22 23 24 25 26 27 28 29 30 31 32 33 34 35 36 37 38 39 40 41 42 43 44 45 46 47 48 49 50
232
SXUS52 KCHS 010928
OSOCHS

MARINE OBSERVATIONS
NATIONAL WEATHER SERVICE CHARLESTON SC
500 AM EDT SUN MAY 01 2016

...DOWNTOWN CHARLESTON AND HARBOR...

CITY           SKY/WX    TMP DP  RH WIND       PRES   REMARKS
WATERFRONT PRK   N/A     73  69  87 SE10      30.03S

...LAKE MOULTRIE...

CITY           SKY/WX    TMP DP  RH WIND       PRES   REMARKS
PINOPOLIS        N/A     70  66  88 CALM      29.96F

...LAKE AND SUPPLEMENTAL COASTAL OBSERVATIONS...

STATION/POSITION TIME  TEMP    WIND        PRES    WAVE   SWELL
                       AIR SEA DIR/SP/G            HT/PER HT/PER/DIR
                 (UTC) (F)     (DEG/KT/KT) (MB)    (FT/S) (FT/S/D)
FORT PULASKI     0900   74 73  120/  7/ 12 1016.8F
SAPELO ISLAND    0900   74     140/  6     1016.0S
WINYAH BAY       0800   72     160/  8     1018.0R
LAKE MURRAY      0900   71     110/  5/ 11 1015.9F
ACE BASIN NERRS  0845   74     130/  4     1017.0S


...C-MAN AND BUOY OBSERVATIONS...

STATION/POSITION TIME  TEMP    WIND        PRES    WAVE   SWELL
                       AIR SEA DIR/SP/G            HT/PER HT/PER/DIR
                 (UTC) (F)     (DEG/KT/KT) (MB)    (FT/S) (FT/S/D)
BUOY 41004       0850   74 73  140/ 16/ 17 1017.5R   5/ 5   2/ 9
BUOY 41008       NOT AVBL
FOLLY BEACH CMAN 0900   73     140/ 14/ 16 1017.5F
CAPERS NS BUOY   0908   72 71  140/ 14/ 17 1017.0F
FRIPP NS BUOY    0908   73 73  150/ 14/ 16 1015.9F
5E ST. MARYS GA  0821      74                N/A     2/11


STATION/POSITION TIME  TEMP    WIND        PRES    WAVE   SWELL
                       AIR SEA DIR/SP/G            HT/PER HT/PER/DIR
                 (UTC) (F)     (DEG/KT/KT) (MB)    (FT/S) (FT/S/D)
FRYING PAN BUOY  0900   72 70  150/ 12/ 17 1018.6R
BUOY 41025       0850   72 73  160/ 12/ 14 1019.3R   5/10   5/ 60/10
CAPE LOOKOUT NC  0900   65      60/  7/  8 1019.1R
BUOY 41002       0850   71     100/ 14/ 16 1019.3F   6/ 9   5/ 20/ 9
BUOY 41010       0820   77 77  130/  8/  8 1017.5R
ST AUGUSTINE FL  0900   71 70  190/  3/  3 1017.1F

$$




USA.gov is the U.S. government's official web portal to all federal, state and local government web resources and services.